Date String (YYYY-MM-DD hh:mm:ss) UTC,Instrument flags,Ambient pressure (hPa),Sample flow (lpm),Bypass flow (lpm),Sample temperature (°C),Ambient temperature (°C),ASC tube jacket temperature (°C),LED temperature (°C),Box temperature (°C),Sample RH (%),Span deviation,Mass concentration (μg/m³),Mass concentration (μg/m³),Mass concentration (μg/m³)
DateTimeUTC,F1_M11,P_M11,Q1_M11,Q2_M11,T1_M11,T2_M11,T3_M11,T4_M11,T5_M11,U1_M11,ZSPAN_M11,X0_M11,X2_M11,X1_M11
2022-10-03 04:00:00,,0829.2,5.01,0.00,29.8,28.2,00.0,38.6,31.6,17.6,0000.0,0008.36,0002.20,0001.39
2022-10-03 04:01:00,,0829.3,4.99,0.00,29.8,28.3,00.0,38.6,31.6,17.7,0000.0,0007.93,0002.18,0001.39
2022-10-03 04:02:00,,0829.3,5.01,0.00,29.8,28.4,00.0,38.6,31.6,17.6,0000.0,0007.88,0002.16,0001.39
2022-10-03 04:03:00,,0829.4,4.99,0.00,29.8,28.4,00.0,38.6,31.6,17.5,0000.0,0007.73,0002.12,0001.38
2022-10-03 04:04:00,,0829.4,5.01,0.00,29.8,28.5,00.0,38.6,31.7,17.6,0000.0,0007.62,0002.09,0001.37
2022-10-03 04:05:00,,0829.3,4.99,0.00,29.8,28.5,00.0,38.6,31.7,17.7,0000.0,0007.51,0002.06,0001.36
2022-10-03 04:06:00,,0829.2,5.01,0.00,29.8,28.5,00.0,38.6,31.7,17.8,0000.0,0007.55,0002.02,0001.36
2022-10-03 04:07:00,,0829.4,4.99,0.00,29.8,28.6,00.0,38.6,31.7,17.8,0000.0,0007.70,0002.03,0001.35
2022-10-03 04:08:00,,0829.3,5.01,0.00,29.9,28.6,00.0,38.6,31.7,17.8,0000.0,0007.90,0002.04,0001.37
2022-10-03 04:09:00,,0829.2,4.99,0.00,29.9,28.7,00.0,38.6,31.7,17.7,0000.0,0008.54,0002.01,0001.38
2022-10-03 04:10:00,,0829.3,5.00,0.00,29.9,28.7,00.0,38.6,31.8,17.8,0000.0,0008.60,0001.98,0001.38
2022-10-03 04:11:00,,0829.3,4.99,0.00,29.9,28.7,00.0,38.6,31.8,17.7,0000.0,0008.18,0002.01,0001.36
2022-10-03 04:12:00,,0829.4,5.01,0.00,29.9,28.7,00.0,38.6,31.8,17.8,0000.0,0008.21,0002.06,0001.37
2022-10-03 04:13:00,,0829.3,4.99,0.00,29.9,28.7,00.0,38.6,31.8,17.6,0000.0,0008.20,0002.06,0001.38
2022-10-03 04:14:00,,0829.4,5.01,0.00,29.9,28.7,00.0,38.6,31.8,17.5,0000.0,0008.42,0002.05,0001.39
2022-10-03 04:15:00,,0829.4,4.99,0.00,30.0,28.7,00.0,38.6,31.8,17.6,0000.0,0008.75,0002.06,0001.41
2022-10-03 04:16:00,,0829.4,5.00,0.00,30.0,28.8,00.0,38.6,31.8,17.5,0000.0,0008.91,0002.08,0001.42
2022-10-03 04:17:00,,0829.4,4.98,0.00,30.0,28.8,00.0,38.7,31.8,17.5,0000.0,0009.07,0002.07,0001.43
2022-10-03 04:18:00,,0829.4,5.01,0.00,30.0,28.8,00.0,38.7,31.9,17.5,0000.0,0008.24,0002.07,0001.44
2022-10-03 04:19:00,,0829.4,4.99,0.00,30.0,28.8,00.0,38.7,31.9,17.5,0000.0,0008.12,0002.14,0001.44
2022-10-03 04:20:00,,0829.4,5.02,0.00,30.0,28.8,00.0,38.7,31.9,17.3,0000.0,0007.47,0002.13,0001.44
2022-10-03 04:21:00,,0829.4,4.99,0.00,30.0,28.8,00.0,38.7,31.9,17.3,0000.0,0006.60,0002.09,0001.43
2022-10-03 04:22:00,,0829.4,5.01,0.00,30.1,28.9,00.0,38.7,31.9,17.2,0000.0,0006.49,0002.12,0001.45
2022-10-03 04:23:00,,0829.4,5.00,0.00,30.1,28.9,00.0,38.7,31.9,17.2,0000.0,0005.71,0002.06,0001.45
2022-10-03 04:24:00,,0829.4,5.00,0.00,30.1,28.9,00.0,38.8,31.9,17.1,0000.0,0005.73,0002.03,0001.44
2022-10-03 04:25:00,,0829.4,5.00,0.00,30.1,28.9,00.0,38.8,31.9,17.0,0000.0,0005.37,0002.01,0001.44
2022-10-03 04:26:00,,0829.4,4.99,0.00,30.1,28.9,00.0,38.8,32.0,17.1,0000.0,0004.61,0002.00,0001.45
2022-10-03 04:27:00,,0829.4,5.01,0.00,30.1,28.9,00.0,38.8,32.0,17.2,0000.0,0004.68,0002.01,0001.45
2022-10-03 04:28:00,,0829.4,5.00,0.00,30.1,28.9,00.0,38.8,32.0,17.2,0000.0,0003.59,0001.99,0001.45
2022-10-03 04:29:00,,0829.5,5.00,0.00,30.1,28.9,00.0,38.8,32.0,17.2,0000.0,0003.48,0001.95,0001.45
2022-10-03 04:30:00,,0829.4,5.00,0.00,30.1,28.9,00.0,38.8,32.0,17.3,0000.0,0003.24,0001.88,0001.45
2022-10-03 04:31:00,,0829.4,4.99,0.00,30.2,28.9,00.0,38.8,32.0,17.4,0000.0,0003.08,0001.89,0001.47
2022-10-03 04:32:00,,0829.5,5.01,0.00,30.2,28.9,00.0,38.8,32.0,17.3,0000.0,0003.18,0001.93,0001.46
2022-10-03 04:33:00,,0829.4,4.99,0.00,30.2,28.9,00.0,38.9,32.0,17.2,0000.0,0003.15,0001.91,0001.47
2022-10-03 04:34:00,,0829.5,5.01,0.00,30.2,29.0,00.0,38.9,32.0,16.9,0000.0,0003.08,0001.89,0001.47
2022-10-03 04:35:00,,0829.5,4.98,0.00,30.2,29.0,00.0,38.9,32.0,16.8,0000.0,0002.89,0001.86,0001.48
2022-10-03 04:36:00,,0829.5,5.01,0.00,30.2,29.0,00.0,38.9,32.1,16.8,0000.0,0003.02,0001.92,0001.48
2022-10-03 04:37:00,,0829.5,5.00,0.00,30.2,29.0,00.0,38.9,32.1,16.8,0000.0,0003.08,0001.95,0001.48
2022-10-03 04:38:00,,0829.5,5.00,0.00,30.2,29.0,00.0,38.9,32.1,16.8,0000.0,0002.88,0001.90,0001.48
2022-10-03 04:39:00,,0829.5,5.01,0.00,30.2,29.0,00.0,38.9,32.0,16.9,0000.0,0002.90,0001.90,0001.48
2022-10-03 04:40:00,,0829.5,4.99,0.00,30.2,29.0,00.0,38.9,32.1,16.9,0000.0,0002.90,0001.91,0001.47
2022-10-03 04:41:00,,0829.5,5.01,0.00,30.3,29.0,00.0,39.0,32.1,16.7,0000.0,0002.88,0001.91,0001.47
2022-10-03 04:42:00,,0829.5,5.01,0.00,30.3,28.1,00.0,38.9,32.0,16.7,0000.0,0003.01,0001.91,0001.46
2022-10-03 04:43:00,,0829.5,4.99,0.00,30.2,26.8,00.0,38.9,31.9,16.7,0000.0,0003.04,0001.91,0001.47
2022-10-03 04:44:00,,0829.4,4.99,0.00,30.1,26.6,00.0,38.8,31.8,16.8,0000.0,0002.99,0001.90,0001.46
2022-10-03 04:45:00,,0829.4,5.02,0.00,30.0,26.8,00.0,38.8,31.7,17.0,0000.0,0002.95,0001.87,0001.45
2022-10-03 04:46:00,,0829.4,4.99,0.00,29.9,27.1,00.0,38.7,31.6,17.2,0000.0,0003.15,0001.91,0001.45
2022-10-03 04:47:00,,0829.4,4.99,0.00,29.9,27.3,00.0,38.7,31.6,17.4,0000.0,0003.41,0001.89,0001.43
2022-10-03 04:48:00,,0829.4,5.00,0.00,29.9,27.6,00.0,38.7,31.5,17.4,0000.0,0004.51,0001.89,0001.42
2022-10-03 04:49:00,,0829.4,5.00,0.00,29.8,27.8,00.0,38.6,31.5,17.4,0000.0,0004.60,0001.94,0001.42
2022-10-03 04:50:00,,0829.4,5.00,0.00,29.8,28.0,00.0,38.6,31.6,17.6,0000.0,0004.61,0001.96,0001.43
2022-10-03 04:51:00,,0829.4,5.01,0.00,29.8,28.1,00.0,38.6,31.6,17.7,0000.0,0004.97,0002.00,0001.43
2022-10-03 04:52:00,,0829.4,5.00,0.00,29.8,28.2,00.0,38.6,31.6,17.6,0000.0,0005.16,0002.02,0001.43
2022-10-03 04:53:00,,0829.5,5.00,0.00,29.8,28.3,00.0,38.6,31.6,17.6,0000.0,0005.29,0002.06,0001.42
2022-10-03 04:54:00,,0829.5,5.00,0.00,29.8,28.3,00.0,38.6,31.6,17.4,0000.0,0005.35,0002.08,0001.42
2022-10-03 04:55:00,,0829.5,5.00,0.00,29.8,28.4,00.0,38.6,31.7,17.5,0000.0,0005.45,0002.11,0001.43
2022-10-03 04:56:00,,0829.5,5.00,0.00,29.8,28.4,00.0,38.6,31.7,17.6,0000.0,0006.02,0002.20,0001.44
2022-10-03 04:57:00,,0829.5,5.00,0.00,29.8,28.5,00.0,38.6,31.7,17.6,0000.0,0006.10,0002.24,0001.46
2022-10-03 04:58:00,,0829.5,4.99,0.00,29.8,28.5,00.0,38.6,31.7,18.1,0000.0,0006.24,0002.34,0001.50
2022-10-03 04:59:00,,0829.5,5.01,0.00,29.9,28.6,00.0,38.6,31.7,18.1,0000.0,0006.72,0002.42,0001.55
